• In Portugal
  • List of Countries
  • For 7 days
  • Water Temperature
  • Satellite Maps
  • Weather Map
  • Weather Widgets
  • user-avatar
    Login

    Hourly Weather Blizianka

    Today, 23 September, Sunday

    Time Temperature Precipitation Wind Pressure Humidity
    00:00 +9°C° 0 mm 2 mps 732 mmHg 76%
    01:00 +9°C° 0 mm 2 mps 732 mmHg 77%
    02:00 +9°C° 0 mm 2 mps 732 mmHg 78%
    03:00 +9°C° 0 mm 2 mps 732 mmHg 78%
    04:00 +9°C° 0 mm 2 mps 731 mmHg 79%
    05:00 +9°C° 0 mm 3 mps 731 mmHg 78%
    06:00 +10°C° 0 mm 3 mps 731 mmHg 77%
    07:00 +10°C° 0 mm 4 mps 731 mmHg 74%
    08:00 +12°C° 0 mm 4 mps 731 mmHg 67%
    09:00 +13°C° 0 mm 4 mps 731 mmHg 60%
    10:00 +15°C° 0 mm 5 mps 731 mmHg 53%
    11:00 +17°C° 0 mm 4 mps 731 mmHg 51%
    12:00 +17°C° 0 mm 4 mps 730 mmHg 50%
    13:00 +18°C° 0 mm 4 mps 730 mmHg 48%
    14:00 +17°C° 0 mm 4 mps 729 mmHg 51%
    15:00 +17°C° 0 mm 3 mps 729 mmHg 54%
    16:00 +17°C° 0 mm 3 mps 728 mmHg 57%
    17:00 +15°C° 0 mm 4 mps 727 mmHg 59%
    18:00 +15°C° 0 mm 4 mps 726 mmHg 60%
    19:00 +14°C° 0 mm 5 mps 725 mmHg 62%
    20:00 +15°C° 0 mm 7 mps 724 mmHg 60%
    21:00 +15°C° 0 mm 8 mps 723 mmHg 58%
    22:00 +14°C° 0 mm 10 mps 722 mmHg 56%
    23:00 +14°C° 0.9 mm 10 mps 721 mmHg 62%

    Tomorrow, 24 September, Monday

    Time Temperature Precipitation Wind Pressure Humidity
    00:00 +14°C° 0.9 mm 10 mps 720 mmHg 67%
    01:00 +14°C° 0.9 mm 10 mps 719 mmHg 73%
    02:00 +13°C° 2.5 mm 10 mps 719 mmHg 77%
    03:00 +13°C° 2.5 mm 10 mps 720 mmHg 82%
    04:00 +12°C° 2.5 mm 9 mps 720 mmHg 86%
    05:00 +11°C° 0.6 mm 9 mps 722 mmHg 86%
    06:00 +9°C° 0.6 mm 8 mps 723 mmHg 86%
    07:00 +6°C° 0.6 mm 8 mps 725 mmHg 85%
    08:00 +6°C° 0.2 mm 8 mps 726 mmHg 84%
    09:00 +7°C° 0.2 mm 8 mps 727 mmHg 82%
    10:00 +7°C° 0.2 mm 8 mps 728 mmHg 81%
    11:00 +7°C° 0.3 mm 8 mps 729 mmHg 77%
    12:00 +8°C° 0.3 mm 9 mps 729 mmHg 73%
    13:00 +8°C° 0.3 mm 9 mps 730 mmHg 69%
    14:00 +8°C° 0.1 mm 9 mps 730 mmHg 67%
    15:00 +9°C° 0.1 mm 8 mps 731 mmHg 64%
    16:00 +9°C° 0.1 mm 8 mps 731 mmHg 61%
    17:00 +8°C° 0.1 mm 7 mps 731 mmHg 64%
    18:00 +7°C° 0.1 mm 6 mps 732 mmHg 68%
    19:00 +6°C° 0.1 mm 5 mps 732 mmHg 71%
    20:00 +5°C° 0 mm 6 mps 732 mmHg 69%
    21:00 +4°C° 0 mm 6 mps 732 mmHg 68%
    22:00 +4°C° 0 mm 6 mps 733 mmHg 66%
    23:00 +4°C° 0.4 mm 6 mps 733 mmHg 73%

    Day after tomorrow, 25 September, Tuesday

    Time Temperature Precipitation Wind Pressure Humidity
    00:00 +4°C° 0.4 mm 6 mps 734 mmHg 80%
    01:00 +4°C° 0.4 mm 6 mps 734 mmHg 87%
    02:00 +4°C° 0.1 mm 6 mps 735 mmHg 88%
    03:00 +3°C° 0.1 mm 5 mps 735 mmHg 89%
    04:00 +3°C° 0.1 mm 5 mps 736 mmHg 90%
    05:00 +3°C° 0 mm 5 mps 737 mmHg 89%
    06:00 +3°C° 0 mm 5 mps 737 mmHg 88%
    07:00 +5°C° 0 mm 5 mps 738 mmHg 86%
    08:00 +5°C° 0.2 mm 6 mps 739 mmHg 79%
    09:00 +7°C° 0.2 mm 6 mps 739 mmHg 71%
    10:00 +8°C° 0.2 mm 6 mps 739 mmHg 63%
    11:00 +9°C° 0.2 mm 7 mps 740 mmHg 59%
    12:00 +9°C° 0.2 mm 7 mps 740 mmHg 56%
    13:00 +9°C° 0.2 mm 7 mps 740 mmHg 52%
    14:00 +9°C° 0 mm 6 mps 740 mmHg 53%
    15:00 +9°C° 0 mm 5 mps 740 mmHg 54%
    16:00 +8°C° 0 mm 4 mps 740 mmHg 55%
    17:00 +7°C° 0 mm 4 mps 741 mmHg 60%
    18:00 +7°C° 0 mm 3 mps 741 mmHg 65%
    19:00 +5°C° 0 mm 2 mps 742 mmHg 70%
    20:00 +5°C° 0 mm 2 mps 742 mmHg 72%
    21:00 +4°C° 0 mm 2 mps 742 mmHg 74%
    22:00 +4°C° 0 mm 2 mps 743 mmHg 76%
    23:00 +3°C° 0 mm 2 mps 743 mmHg 78%

    26 September, Wednesday

    Time Temperature Precipitation Wind Pressure Humidity
    00:00 +3°C° 0 mm 2 mps 743 mmHg 80%
    01:00 +2°C° 0 mm 2 mps 743 mmHg 81%
    02:00 +3°C° 0 mm 1 mps 743 mmHg 82%
    03:00 +3°C° 0 mm 1 mps 743 mmHg 84%
    04:00 +3°C° 0 mm 1 mps 744 mmHg 85%
    05:00 +3°C° 0 mm 1 mps 744 mmHg 82%
    06:00 +4°C° 0 mm 1 mps 744 mmHg 80%
    07:00 +5°C° 0 mm 1 mps 744 mmHg 77%
    08:00 +6°C° 0 mm 2 mps 744 mmHg 68%
    09:00 +8°C° 0 mm 2 mps 744 mmHg 58%
    10:00 +10°C° 0 mm 2 mps 744 mmHg 49%
    11:00 +12°C° 0 mm 2 mps 743 mmHg 46%
    12:00 +13°C° 0 mm 2 mps 743 mmHg 42%
    13:00 +13°C° 0 mm 2 mps 743 mmHg 39%
    14:00 +13°C° 0 mm 2 mps 742 mmHg 43%
    15:00 +13°C° 0 mm 2 mps 741 mmHg 46%
    16:00 +13°C° 0 mm 2 mps 741 mmHg 50%
    17:00 +10°C° 0 mm 2 mps 741 mmHg 53%
    18:00 +9°C° 0 mm 2 mps 740 mmHg 56%
    19:00 +7°C° 0 mm 3 mps 740 mmHg 60%
    20:00 +8°C° 0 mm 3 mps 740 mmHg 60%
    21:00 +8°C° 0 mm 3 mps 740 mmHg 60%
    22:00 +8°C° 0 mm 3 mps 740 mmHg 61%
    23:00 +7°C° 0 mm 4 mps 739 mmHg 61%

    27 September, Thursday

    Time Temperature Precipitation Wind Pressure Humidity
    00:00 +7°C° 0 mm 4 mps 739 mmHg 62%
    01:00 +7°C° 0 mm 4 mps 739 mmHg 62%
    02:00 +7°C° 0 mm 4 mps 739 mmHg 62%
    03:00 +7°C° 0 mm 4 mps 738 mmHg 62%
    04:00 +7°C° 0 mm 5 mps 738 mmHg 62%
    05:00 +7°C° 0 mm 5 mps 738 mmHg 61%
    06:00 +7°C° 0 mm 5 mps 737 mmHg 61%
    07:00 +7°C° 0 mm 5 mps 737 mmHg 60%
    08:00 +9°C° 0 mm 5 mps 737 mmHg 57%
    09:00 +10°C° 0 mm 5 mps 737 mmHg 55%
    10:00 +12°C° 0 mm 5 mps 737 mmHg 53%
    11:00 +13°C° 0 mm 5 mps 737 mmHg 54%
    12:00 +13°C° 0 mm 4 mps 737 mmHg 56%
    13:00 +14°C° 0 mm 4 mps 737 mmHg 58%
    14:00 +14°C° 0 mm 4 mps 736 mmHg 60%
    15:00 +16°C° 0 mm 3 mps 736 mmHg 61%
    16:00 +16°C° 0 mm 3 mps 736 mmHg 62%
    17:00 +14°C° 0 mm 3 mps 736 mmHg 64%
    18:00 +13°C° 0 mm 3 mps 736 mmHg 66%
    19:00 +12°C° 0 mm 3 mps 736 mmHg 68%
    20:00 +12°C° 0 mm 3 mps 736 mmHg 68%
    21:00 +11°C° 0 mm 3 mps 736 mmHg 68%
    22:00 +11°C° 0 mm 3 mps 736 mmHg 68%
    23:00 +11°C° 0 mm 3 mps 735 mmHg 70%

    28 September, Friday

    Time Temperature Precipitation Wind Pressure Humidity
    00:00 +10°C° 0 mm 3 mps 735 mmHg 71%
    01:00 +10°C° 0 mm 3 mps 735 mmHg 72%
    02:00 +9°C° 0 mm 3 mps 734 mmHg 72%
    03:00 +9°C° 0 mm 3 mps 734 mmHg 72%
    04:00 +9°C° 0 mm 3 mps 734 mmHg 71%
    05:00 +10°C° 0 mm 3 mps 733 mmHg 70%
    06:00 +10°C° 0 mm 3 mps 733 mmHg 68%
    07:00 +11°C° 0 mm 3 mps 733 mmHg 67%
    08:00 +13°C° 0 mm 3 mps 733 mmHg 63%
    09:00 +16°C° 0 mm 3 mps 733 mmHg 59%
    10:00 +18°C° 0 mm 4 mps 733 mmHg 54%
    11:00 +19°C° 0 mm 3 mps 733 mmHg 53%
    12:00 +20°C° 0 mm 3 mps 732 mmHg 51%
    13:00 +21°C° 0 mm 3 mps 732 mmHg 49%
    14:00 +21°C° 0 mm 3 mps 732 mmHg 52%
    15:00 +20°C° 0 mm 2 mps 732 mmHg 55%
    16:00 +20°C° 0 mm 2 mps 731 mmHg 58%
    17:00 +18°C° 0 mm 2 mps 731 mmHg 61%
    18:00 +16°C° 0 mm 2 mps 732 mmHg 64%
    19:00 +14°C° 0 mm 2 mps 732 mmHg 68%
    20:00 +14°C° 0 mm 2 mps 732 mmHg 70%
    21:00 +14°C° 0 mm 1 mps 732 mmHg 72%
    22:00 +13°C° 0 mm 1 mps 732 mmHg 74%
    23:00 +13°C° 0 mm 1 mps 732 mmHg 77%
    Show more